Regional Weather Roundup
Issued by NWS Jackson, KY

Home | Current Version | Previous Version | Text Only | Print | Product List | Glossary On
Versions: 1 2 3 4 5 6 7 8 9 10 11 12 13 14 15 16 17 18 19 20 21 22 23 24 25 26 27 28 29 30 31 32 33 34 35 36 37 38 39 40 41 42 43 44 45 46 47 48 49 50
000
ASUS43 KJKL 280910
RWRJKL

EAST KENTUCKY HOURLY WEATHER ROUNDUP
NATIONAL WEATHER SERVICE JACKSON KY
500 AM EDT SAT MAR 28 2015

NOTE: "FAIR" INDICATES FEW OR NO CLOUDS BELOW 12,000 FEET WITH
NO SIGNIFICANT WEATHER AND/OR OBSTRUCTIONS TO VISIBILITY.

* THESE REPORTS ARE NOT UNDER NWS QUALITY CONTROL AND MAY NOT
  REPORT WEATHER SUCH AS PRECIPITATION AND FOG.

KYZ079-080-083-085-087-088-110-112-115-119-120-281000
...EASTERN KENTUCKY...

CITY           SKY/WX    TMP DP  RH WIND       PRES   REMARKS
JACKSON        CLOUDY    25  18  74 CALM      30.05S
LONDON         CLOUDY    29  11  47 N8        30.07S WCI  21
SOMERSET*      CLEAR     27  14  59 N7        30.12R WCI  19
MONTICELLO*    PTCLDY    28  18  66 N7        30.14R WCI  21
MIDDLESBORO*   CLOUDY    30  18  61 NW8       30.07R WCI  22
HAZARD APT*    CLOUDY    28  16  59 NW6       30.06R WCI  22
BLACK MTN*       N/A     14  14 100 N5          N/A  WCI   6
PIKEVILLE APT* CLOUDY    25  14  63 N6        30.02S WCI  18
BIG SANDY*     CLOUDY    26  19  76 N5        30.05R WCI  20
MOREHEAD APT*  CLOUDY    27  18  69 N8        30.11R WCI  18
$$

KYZ035-036-041-042-044-050-067-078-099-281000
...CENTRAL KENTUCKY...

CITY           SKY/WX    TMP DP  RH WIND       PRES   REMARKS
MT STERLING*   MOCLDY    27  18  69 N5        30.11R WCI  21
FLEMING/MASON* CLOUDY    25  19  80 N9        30.12R WCI  15
DANVILLE*      CLOUDY    25  19  80 N8        30.12S WCI  16
RICHMOND*      PTCLDY    25  16  68 N3        30.10S
LEXINGTON      CLOUDY    21  13  71 NW7       30.11S WCI  12
FRANKFORT      CLEAR     22  11  62 NW6       30.12S WCI  14
$$

KYZ091>093-OHZ055-061-077-WVZ005-015-034-035-042-281000
...SOUTHERN OHIO/WEST VIRGINIA...

CITY           SKY/WX    TMP DP  RH WIND       PRES   REMARKS
COVINGTON      CLEAR     21  13  71 N10       30.13R WCI  10
COLUMBUS       MOCLDY    19  12  74 N9        30.12R WCI   8
DAYTON         CLEAR     20  14  77 N6        30.14R WCI  12
WILMINGTON     CLEAR     19  13  77 N6        30.11R WCI  11
HUNTINGTON     MOCLDY    25   7  46 N7        30.08R WCI  17
CHARLESTON     CLOUDY    26   9  48 NW8G17    30.04R WCI  18
PINEVILLE*     FLURRIES  26  19  75 MISG      30.02S
BECKLEY        CLOUDY    20   7  57 NW15G24   29.91R WCI   6
BLUEFIELD      LGT SNOW  22  11  62 NW14G20   29.88S WCI   9
$$

VAZ002-007-008-TNZ017-027-036-066-071-281000
...SOUTHWEST VIRGINIA/EAST TENNESSEE...

CITY           SKY/WX    TMP DP  RH WIND       PRES   REMARKS
WISE*          CLOUDY    23  12  63 NW9       29.95R WCI  13
JONESVILLE*    CLOUDY    28  10  47 NW9       30.05R WCI  20
ABINGDON*      FLURRIES  28  21  74 NW9       29.95R WCI  19
BRISTOL        CLOUDY    30  18  60 NW13G20   29.98R WCI  20
KNOXVILLE      CLOUDY    33  20  58 N7        30.05S WCI  27
OAK RIDGE      CLOUDY    34  20  56 N6        30.08R WCI  29
CROSSVILLE     MOCLDY    28  20  71 NW7G23    30.04S WCI  21
NASHVILLE      CLEAR     30  19  63 N6        30.16S WCI  24
$$

...KEY TO REMARKS...
VSB - VISIBILITY IN MILES
WCI - WIND CHILL INDEX
HX  - HEAT INDEX

$$


USA.gov is the U.S. government's official web portal to all federal, state and local government web resources and services.